Regional Weather Roundup
Issued by NWS Portland, ME

Home | Current Version | Previous Version | Text Only | Print | Product List | Glossary On
Versions: 1 2 3 4 5 6 7 8 9 10 11 12 13 14 15 16 17 18 19 20 21 22 23 24 25 26 27 28 29 30 31 32 33 34 35 36 37 38 39 40 41 42 43 44 45 46 47 48 49 50
000
ASUS41 KGYX 040310
RWRGYX
WEATHER ROUNDUP FOR MAINE AND NEW HAMPSHIRE
NATIONAL WEATHER SERVICE GRAY ME
1100 PM EDT FRI JUL 03 2015

MEZ002-005-006-010-012-015-018-020-021-024-026-027-029-040400-
MAINE

CITY           SKY/WX    TMP DP  RH WIND       PRES   REMARKS
PORTLAND       PTCLDY    62  56  80 CALM      29.97R
SANFORD        CLEAR     54  48  82 SW3       29.98S
BAR HARBOR     CLEAR     63  55  77 SW3       29.95S
WISCASSET      CLEAR     56  53  90 CALM      29.98R
ROCKLAND       CLEAR     55  50  82 SW3       29.95R
FRYEBURG       CLEAR     53  51  93 CALM      29.98S
LEWISTONAUBURN CLEAR     57  54  88 CALM      29.97S
AUGUSTA        CLEAR     62  53  72 SW5       29.97R
WATERVILLE       N/A    N/A N/A N/A MISG        N/A
BANGOR         CLEAR     63  50  62 W7        29.94S
GREENVILLE       N/A     57  46  66 CALM      29.95F
MILLINOCKET    CLEAR     62  51  67 NW3       29.94S
HOULTON        CLEAR     58  48  69 S6        29.89S
PRESQUE ISLE   CLEAR     63  45  51 SW8       29.88S
FRENCHVILLE    CLEAR     59  47  64 W8        29.87R
CARIBOU        CLEAR     60  47  61 CALM      29.87R
$$

NHZ002-005-008-009-011-012-014-040400-
NEW HAMPSHIRE

CITY           SKY/WX    TMP DP  RH WIND       PRES   REMARKS
PORTSMOUTH     MOCLDY    62  52  69 S2        29.95F
ROCHESTER      PTCLDY    62  54  74 CALM      29.97S
NASHUA         MOCLDY    63  56  78 CALM      29.98S
MANCHESTER     MOCLDY    66  56  70 CALM      29.96S
CONCORD        PTCLDY    56  54  93 CALM      29.98S
LACONIA        CLEAR     57  52  82 CALM      29.97F
PLYMOUTH       FAIR      54  54 100 CALM      29.98F
BERLIN         CLEAR     51  47  86 CALM      30.00S
WHITEFIELD     CLEAR     51  48  89 CALM      30.00S
JAFFREY        MOCLDY    57  55  93 CALM      30.01S
KEENE          MOCLDY    59  54  82 CALM      29.99S
LEBANON        PTCLDY    54  50  86 S3        29.98S
MT WASHINGTON  PTCLDY    43  37  81 W14         N/A
$$

VTZ005-007-008-040400-
VERMONT

CITY           SKY/WX    TMP DP  RH WIND       PRES   REMARKS
ST JOHNSBURY     N/A     57  51  80 MISG      29.98R
MONTPELIER     PTCLDY    54  50  86 S3        30.02F
BURLINGTON     FAIR      63  54  72 E3        29.95F
$$

MAZ007-012-024-CTZ003-RIZ002-NYZ038-NYZ072-040400-
SOUTHERN NEW ENGLAND AND NY

CITY           SKY/WX    TMP DP  RH WIND       PRES   REMARKS
BOSTON         MOCLDY    66  55  67 S8        29.99R
WORCESTER      MOCLDY    63  54  72 SW7       30.01S
NANTUCKET      PTCLDY    58  56  93 S3        30.01F FOG
PROVIDENCE     MOCLDY    65  56  72 S3        30.01S
HARTFORD       MOCLDY    67  54  63 S7        29.98R
ALBANY         CLOUDY    65  50  58 CALM      29.97S
NEW YORK CITY  CLOUDY    72  59  63 S8        29.98R
$$

ANZ081-ANZ082-ANZ150-NHZ014-MEZ023>029-040400-
COASTAL MARINE OBSERVATIONS

STATION/POSITION TIME  TEMP    WIND        PRES    WAVE
                       AIR SEA DIR/SP/G            HT/PER
                 (UTC) (F)     (DEG/KT/KT) (MB)    (FT/S)
MOUNT DESERT ROC 0300   56     240/ 13/ 14 1014.8R
MATINICUS ROCK   0200   58     240/ 14/ 14 1014.3R
ISLE OF SHOALS   0200   65     180/ 11/ 12 1014.4R
JEFFREYS LEDGE   0203      60                N/A     2/ 9
CASHES LEDGE BUO 0250   61 57              1014.7R   3/ 9
GEORGES BANK BUO 0250   57 60  340/  4/  6 1016.7R   6/ 9
$$

.............KEY..............
   WCI - WIND CHILL
   TC  - TEMPERATURE IN CELSIUS
   VSB - VISIBILITY IN MILES
   HX  - HEAT INDEX
   FAIR- INDICATES FEW OR NO CLOUDS BELOW 12,000 FT, WITH NO
         SIGNIFICANT WEATHER AND/OR OBSTRUCTIONS TO VISIBILITY.




USA.gov is the U.S. government's official web portal to all federal, state and local government web resources and services.